Time,TemperatureF,DewpointF,PressureIn,WindDirection,WindDirectionDegrees,WindSpeedMPH,WindSpeedGustMPH,Humidity,HourlyPrecipIn,Conditions,Clouds,dailyrainin,SoftwareType,DateUTC
2013-04-30 00:05:00,55.5,40.5,30.22,SSW,198,0.0,1.0,57,0.00,,,0.00,Wunderground v.1.15,2013-04-30 04:05:00,
2013-04-30 00:10:00,55.4,40.4,30.22,SSW,198,0.0,0.0,57,0.00,,,0.00,Wunderground v.1.15,2013-04-30 04:10:00,
2013-04-30 00:15:00,55.3,41.6,30.22,SSW,198,0.0,0.0,60,0.00,,,0.00,Wunderground v.1.15,2013-04-30 04:15:00,
2013-04-30 00:20:00,55.1,41.5,30.22,SSW,198,0.0,0.0,60,0.00,,,0.00,Wunderground v.1.15,2013-04-30 04:20:00,
2013-04-30 00:25:00,55.0,41.8,30.22,SSW,198,0.0,0.0,61,0.00,,,0.00,Wunderground v.1.15,2013-04-30 04:25:00,
2013-04-30 00:30:00,54.8,42.4,30.22,SSW,198,0.0,0.0,63,0.00,,,0.00,Wunderground v.1.15,2013-04-30 04:30:00,
2013-04-30 00:35:00,54.6,42.3,30.22,SSW,198,0.0,0.0,63,0.00,,,0.00,Wunderground v.1.15,2013-04-30 04:35:00,
2013-04-30 00:40:00,54.4,41.2,30.22,SSW,198,0.0,0.0,61,0.00,,,0.00,Wunderground v.1.15,2013-04-30 04:40:00,
2013-04-30 00:50:00,54.0,41.3,30.22,SSW,198,0.0,0.0,62,0.00,,,0.00,Wunderground v.1.15,2013-04-30 04:50:00,
2013-04-30 01:00:00,53.7,41.4,30.22,SSW,198,0.0,0.0,63,0.00,,,0.00,Wunderground v.1.15,2013-04-30 05:00:00,
2013-04-30 01:05:00,53.5,41.2,30.22,SSW,198,0.0,0.0,63,0.00,,,0.00,Wunderground v.1.15,2013-04-30 05:05:00,
2013-04-30 01:15:00,53.3,41.8,30.22,SSW,198,0.0,0.0,65,0.00,,,0.00,Wunderground v.1.15,2013-04-30 05:15:00,
2013-04-30 01:20:00,53.2,41.7,30.22,SSW,198,0.0,0.0,65,0.00,,,0.00,Wunderground v.1.15,2013-04-30 05:20:00,
2013-04-30 01:30:00,52.9,42.2,30.22,SSW,198,0.0,0.0,67,0.00,,,0.00,Wunderground v.1.15,2013-04-30 05:30:00,
2013-04-30 01:35:00,52.8,42.1,30.22,SSW,198,0.0,0.0,67,0.00,,,0.00,Wunderground v.1.15,2013-04-30 05:35:00,
2013-04-30 01:45:00,52.5,41.9,30.22,SSW,198,0.0,0.0,67,0.00,,,0.00,Wunderground v.1.15,2013-04-30 05:45:00,
2013-04-30 01:50:00,52.4,41.8,30.22,SSW,198,0.0,0.0,67,0.00,,,0.00,Wunderground v.1.15,2013-04-30 05:50:00,
2013-04-30 01:55:00,52.3,41.3,30.22,SSW,198,0.0,0.0,66,0.00,,,0.00,Wunderground v.1.15,2013-04-30 05:55:00,
2013-04-30 02:05:00,52.1,41.9,30.22,SSW,198,0.0,0.0,68,0.00,,,0.00,Wunderground v.1.15,2013-04-30 06:05:00,
2013-04-30 02:15:00,51.9,42.0,30.22,SSW,198,0.0,0.0,69,0.00,,,0.00,Wunderground v.1.15,2013-04-30 06:15:00,
2013-04-30 02:20:00,51.8,42.7,30.22,SSW,198,0.0,0.0,71,0.00,,,0.00,Wunderground v.1.15,2013-04-30 06:20:00,
2013-04-30 02:25:00,51.7,42.2,30.22,SSW,198,0.0,0.0,70,0.00,,,0.00,Wunderground v.1.15,2013-04-30 06:25:00,
2013-04-30 02:35:00,51.5,42.0,30.22,SSW,198,0.0,0.0,70,0.00,,,0.00,Wunderground v.1.15,2013-04-30 06:35:00,
2013-04-30 02:40:00,51.5,42.8,30.22,SSW,198,0.0,0.0,72,0.00,,,0.00,Wunderground v.1.15,2013-04-30 06:40:00,
2013-04-30 02:45:00,51.4,42.3,30.22,SSW,198,0.0,0.0,71,0.00,,,0.00,Wunderground v.1.15,2013-04-30 06:45:00,
2013-04-30 02:55:00,51.3,42.6,30.22,SSW,198,0.0,0.0,72,0.00,,,0.00,Wunderground v.1.15,2013-04-30 06:55:00,
2013-04-30 03:00:00,51.2,42.5,30.22,SSW,198,0.0,0.0,72,0.00,,,0.00,Wunderground v.1.15,2013-04-30 07:00:00,
2013-04-30 03:05:00,51.1,41.7,30.22,SSW,198,0.0,0.0,70,0.00,,,0.00,Wunderground v.1.15,2013-04-30 07:05:00,
2013-04-30 03:15:00,51.0,41.9,30.22,SSW,198,0.0,0.0,71,0.00,,,0.00,Wunderground v.1.15,2013-04-30 07:15:00,
2013-04-30 03:25:00,50.9,42.2,30.22,SSW,198,0.0,0.0,72,0.00,,,0.00,Wunderground v.1.15,2013-04-30 07:25:00,
2013-04-30 03:30:00,50.8,41.7,30.23,SSW,198,0.0,0.0,71,0.00,,,0.00,Wunderground v.1.15,2013-04-30 07:30:00,
2013-04-30 03:40:00,50.7,42.7,30.23,SSW,198,0.0,0.0,74,0.00,,,0.00,Wunderground v.1.15,2013-04-30 07:40:00,
2013-04-30 03:45:00,50.6,41.9,30.23,SSW,198,0.0,0.0,72,0.00,,,0.00,Wunderground v.1.15,2013-04-30 07:45:00,
2013-04-30 03:55:00,50.5,41.4,30.23,SSW,198,0.0,0.0,71,0.00,,,0.00,Wunderground v.1.15,2013-04-30 07:55:00,
2013-04-30 04:00:00,50.5,41.8,30.23,SSW,198,0.0,0.0,72,0.00,,,0.00,Wunderground v.1.15,2013-04-30 08:00:00,
2013-04-30 04:05:00,50.5,42.2,30.23,SSW,198,0.0,0.0,73,0.00,,,0.00,Wunderground v.1.15,2013-04-30 08:05:00,
2013-04-30 04:15:00,50.5,42.2,30.24,SSW,198,0.0,0.0,73,0.00,,,0.00,Wunderground v.1.15,2013-04-30 08:15:00,
2013-04-30 04:20:00,50.5,42.5,30.23,SSW,198,0.0,0.0,74,0.00,,,0.00,Wunderground v.1.15,2013-04-30 08:20:00,
2013-04-30 04:25:00,50.4,42.1,30.24,SSW,198,0.0,0.0,73,0.00,,,0.00,Wunderground v.1.15,2013-04-30 08:25:00,
2013-04-30 04:30:00,50.3,42.3,30.24,SSW,198,0.0,0.0,74,0.00,,,0.00,Wunderground v.1.15,2013-04-30 08:30:00,
2013-04-30 04:40:00,50.2,41.9,30.24,SSW,198,0.0,0.0,73,0.00,,,0.00,Wunderground v.1.15,2013-04-30 08:40:00,
2013-04-30 04:45:00,50.2,41.9,30.24,SSW,198,0.0,0.0,73,0.00,,,0.00,Wunderground v.1.15,2013-04-30 08:45:00,
2013-04-30 04:55:00,50.0,42.0,30.24,SSW,198,0.0,0.0,74,0.00,,,0.00,Wunderground v.1.15,2013-04-30 08:55:00,
2013-04-30 05:00:00,49.9,42.3,30.24,SSW,198,0.0,0.0,75,0.00,,,0.00,Wunderground v.1.15,2013-04-30 09:00:00,
2013-04-30 05:05:00,49.9,41.9,30.24,SSW,198,0.0,0.0,74,0.00,,,0.00,Wunderground v.1.15,2013-04-30 09:05:00,
2013-04-30 05:15:00,49.8,42.2,30.24,SSW,198,0.0,0.0,75,0.00,,,0.00,Wunderground v.1.15,2013-04-30 09:15:00,
2013-04-30 05:25:00,49.7,42.1,30.25,SSW,198,0.0,0.0,75,0.00,,,0.00,Wunderground v.1.15,2013-04-30 09:25:00,
2013-04-30 05:30:00,49.6,42.3,30.25,SSW,198,0.0,0.0,76,0.00,,,0.00,Wunderground v.1.15,2013-04-30 09:30:00,
2013-04-30 05:40:00,49.5,42.2,30.25,SSW,198,0.0,0.0,76,0.00,,,0.00,Wunderground v.1.15,2013-04-30 09:40:00,
2013-04-30 05:45:00,49.5,42.2,30.25,SSW,198,0.0,0.0,76,0.00,,,0.00,Wunderground v.1.15,2013-04-30 09:45:00,
2013-04-30 05:55:00,49.3,42.1,30.25,SSW,198,0.0,0.0,76,0.00,,,0.00,Wunderground v.1.15,2013-04-30 09:55:00,
2013-04-30 06:00:00,49.2,42.6,30.25,SSW,198,0.0,0.0,78,0.00,,,0.00,Wunderground v.1.15,2013-04-30 10:00:00,
2013-04-30 06:05:00,49.2,42.3,30.25,SSW,198,0.0,0.0,77,0.00,,,0.00,Wunderground v.1.15,2013-04-30 10:05:00,
2013-04-30 06:15:00,49.0,41.4,30.26,SSW,198,0.0,0.0,75,0.00,,,0.00,Wunderground v.1.15,2013-04-30 10:15:00,
2013-04-30 06:25:00,49.0,42.1,30.26,SSW,198,0.0,0.0,77,0.00,,,0.00,Wunderground v.1.15,2013-04-30 10:25:00,
2013-04-30 06:30:00,49.0,42.1,30.26,SSW,198,0.0,0.0,77,0.00,,,0.00,Wunderground v.1.15,2013-04-30 10:30:00,
2013-04-30 06:40:00,48.9,42.0,30.26,SSW,198,0.0,0.0,77,0.00,,,0.00,Wunderground v.1.15,2013-04-30 10:40:00,
2013-04-30 06:45:00,48.8,42.2,30.26,SSW,198,0.0,0.0,78,0.00,,,0.00,Wunderground v.1.15,2013-04-30 10:45:00,
2013-04-30 06:55:00,48.8,42.2,30.27,SSW,198,0.0,0.0,78,0.00,,,0.00,Wunderground v.1.15,2013-04-30 10:55:00,
2013-04-30 07:00:00,48.8,42.2,30.27,SSW,198,0.0,0.0,78,0.00,,,0.00,Wunderground v.1.15,2013-04-30 11:00:00,
2013-04-30 07:05:00,48.9,42.3,30.27,SSW,198,0.0,0.0,78,0.00,,,0.00,Wunderground v.1.15,2013-04-30 11:05:00,
2013-04-30 07:15:00,49.4,41.1,30.27,SSW,198,0.0,0.0,73,0.00,,,0.00,Wunderground v.1.15,2013-04-30 11:15:00,
2013-04-30 07:25:00,50.5,39.6,30.28,SSW,198,0.0,0.0,66,0.00,,,0.00,Wunderground v.1.15,2013-04-30 11:25:00,
2013-04-30 07:30:00,51.1,39.3,30.28,SSW,198,0.0,0.0,64,0.00,,,0.00,Wunderground v.1.15,2013-04-30 11:30:00,
2013-04-30 07:35:00,51.9,38.9,30.28,SSW,198,0.0,0.0,61,0.00,,,0.00,Wunderground v.1.15,2013-04-30 11:35:00,
2013-04-30 07:45:00,53.4,38.5,30.28,SSW,198,0.0,0.0,57,0.00,,,0.00,Wunderground v.1.15,2013-04-30 11:45:00,
2013-04-30 07:50:00,54.3,37.5,30.28,SSW,198,0.0,0.0,53,0.00,,,0.00,Wunderground v.1.15,2013-04-30 11:50:00,
2013-04-30 08:00:00,55.8,35.3,30.28,SSW,200,0.0,0.0,46,0.00,,,0.00,Wunderground v.1.15,2013-04-30 12:00:00,
2013-04-30 08:05:00,56.2,34.6,30.28,SSW,200,0.0,0.0,44,0.00,,,0.00,Wunderground v.1.15,2013-04-30 12:05:00,
2013-04-30 08:15:00,57.3,35.6,30.28,SSW,206,0.0,1.0,44,0.00,,,0.00,Wunderground v.1.15,2013-04-30 12:15:00,
2013-04-30 08:20:00,57.7,32.9,30.28,SSW,206,1.0,1.0,39,0.00,,,0.00,Wunderground v.1.15,2013-04-30 12:20:00,
2013-04-30 08:30:00,58.1,33.2,30.28,SSW,205,0.0,0.0,39,0.00,,,0.00,Wunderground v.1.15,2013-04-30 12:30:00,
2013-04-30 08:35:00,58.5,31.6,30.28,SSW,205,0.0,0.0,36,0.00,,,0.00,Wunderground v.1.15,2013-04-30 12:35:00,
2013-04-30 08:45:00,59.1,30.0,30.28,SSW,205,0.0,0.0,33,0.00,,,0.00,Wunderground v.1.15,2013-04-30 12:45:00,
2013-04-30 08:50:00,59.6,30.4,30.29,SSW,205,0.0,0.0,33,0.00,,,0.00,Wunderground v.1.15,2013-04-30 12:50:00,
2013-04-30 08:55:00,60.3,31.0,30.29,South,190,0.0,1.0,33,0.00,,,0.00,Wunderground v.1.15,2013-04-30 12:55:00,
2013-04-30 09:05:00,60.8,32.2,30.28,SSW,202,1.0,1.0,34,0.00,,,0.00,Wunderground v.1.15,2013-04-30 13:05:00,
2013-04-30 09:15:00,61.1,32.5,30.28,SSW,213,0.0,1.0,34,0.00,,,0.00,Wunderground v.1.15,2013-04-30 13:15:00,
2013-04-30 09:20:00,61.2,34.0,30.28,SSW,200,1.0,1.0,36,0.00,,,0.00,Wunderground v.1.15,2013-04-30 13:20:00,
2013-04-30 09:30:00,61.5,34.3,30.28,SSW,204,1.0,1.0,36,0.00,,,0.00,Wunderground v.1.15,2013-04-30 13:30:00,
2013-04-30 09:35:00,61.5,35.0,30.28,South,180,1.0,1.0,37,0.00,,,0.00,Wunderground v.1.15,2013-04-30 13:35:00,
2013-04-30 09:40:00,61.7,35.8,30.28,SSW,200,1.0,1.0,38,0.00,,,0.00,Wunderground v.1.15,2013-04-30 13:40:00,
2013-04-30 09:50:00,62.2,34.9,30.28,SSW,194,2.0,3.0,36,0.00,,,0.00,Wunderground v.1.15,2013-04-30 13:50:00,
2013-04-30 10:00:00,62.7,35.3,30.28,South,190,2.0,2.0,36,0.00,,,0.00,Wunderground v.1.15,2013-04-30 14:00:00,
2013-04-30 10:05:00,62.7,36.0,30.28,SW,219,1.0,2.0,37,0.00,,,0.00,Wunderground v.1.15,2013-04-30 14:05:00,
2013-04-30 10:15:00,63.6,36.1,30.28,SSW,195,1.0,2.0,36,0.00,,,0.00,Wunderground v.1.15,2013-04-30 14:15:00,
2013-04-30 10:20:00,63.9,39.7,30.28,WNW,291,1.0,1.0,41,0.00,,,0.00,Wunderground v.1.15,2013-04-30 14:20:00,
2013-04-30 10:25:00,63.9,35.7,30.28,SSW,210,1.0,1.0,35,0.00,,,0.00,Wunderground v.1.15,2013-04-30 14:25:00,
2013-04-30 10:35:00,64.7,36.4,30.28,SE,134,1.0,4.0,35,0.00,,,0.00,Wunderground v.1.15,2013-04-30 14:35:00,
2013-04-30 10:40:00,64.8,35.8,30.28,SSW,211,1.0,5.0,34,0.00,,,0.00,Wunderground v.1.15,2013-04-30 14:40:00,
2013-04-30 10:50:00,64.5,38.3,30.28,SW,215,1.0,2.0,38,0.00,,,0.00,Wunderground v.1.15,2013-04-30 14:50:00,
2013-04-30 10:55:00,64.8,35.8,30.28,SW,232,3.0,3.0,34,0.00,,,0.00,Wunderground v.1.15,2013-04-30 14:55:00,
2013-04-30 11:05:00,65.4,37.7,30.28,South,186,2.0,4.0,36,0.00,,,0.00,Wunderground v.1.15,2013-04-30 15:05:00,
2013-04-30 11:15:00,65.8,37.4,30.27,South,178,2.0,2.0,35,0.00,,,0.00,Wunderground v.1.15,2013-04-30 15:15:00,
2013-04-30 11:20:00,65.9,36.7,30.27,South,179,2.0,2.0,34,0.00,,,0.00,Wunderground v.1.15,2013-04-30 15:20:00,
2013-04-30 11:25:00,66.4,37.9,30.27,South,189,1.0,4.0,35,0.00,,,0.00,Wunderground v.1.15,2013-04-30 15:25:00,
2013-04-30 11:35:00,66.7,40.3,30.27,SE,142,2.0,2.0,38,0.00,,,0.00,Wunderground v.1.15,2013-04-30 15:35:00,
2013-04-30 11:45:00,67.0,36.9,30.27,SE,128,1.0,3.0,33,0.00,,,0.00,Wunderground v.1.15,2013-04-30 15:45:00,
2013-04-30 11:50:00,67.1,37.0,30.27,SE,134,2.0,2.0,33,0.00,,,0.00,Wunderground v.1.15,2013-04-30 15:50:00,
2013-04-30 12:00:00,67.8,38.4,30.26,ESE,119,1.0,2.0,34,0.00,,,0.00,Wunderground v.1.15,2013-04-30 16:00:00,
2013-04-30 12:05:00,68.0,37.8,30.26,SSE,148,2.0,4.0,33,0.00,,,0.00,Wunderground v.1.15,2013-04-30 16:05:00,
2013-04-30 12:15:00,67.6,37.5,30.26,SSW,199,4.0,4.0,33,0.00,,,0.00,Wunderground v.1.15,2013-04-30 16:15:00,
2013-04-30 12:20:00,67.7,37.5,30.25,SSW,211,3.0,3.0,33,0.00,,,0.00,Wunderground v.1.15,2013-04-30 16:20:00,
2013-04-30 12:30:00,67.8,37.6,30.25,SSW,211,3.0,6.0,33,0.00,,,0.00,Wunderground v.1.15,2013-04-30 16:30:00,
2013-04-30 12:35:00,67.7,35.1,30.25,SSW,210,5.0,6.0,30,0.00,,,0.00,Wunderground v.1.15,2013-04-30 16:35:00,
2013-04-30 12:45:00,68.0,36.2,30.25,WSW,243,2.0,5.0,31,0.00,,,0.00,Wunderground v.1.15,2013-04-30 16:45:00,
2013-04-30 12:50:00,68.0,35.4,30.25,SSW,198,2.0,3.0,30,0.00,,,0.00,Wunderground v.1.15,2013-04-30 16:50:00,
2013-04-30 12:55:00,68.2,38.0,30.25,South,175,4.0,4.0,33,0.00,,,0.00,Wunderground v.1.15,2013-04-30 16:55:00,
2013-04-30 13:05:00,68.6,35.9,30.25,SSW,210,3.0,4.0,30,0.00,,,0.00,Wunderground v.1.15,2013-04-30 17:05:00,
2013-04-30 13:15:00,68.9,37.8,30.25,SSW,209,2.0,3.0,32,0.00,,,0.00,Wunderground v.1.15,2013-04-30 17:15:00,
2013-04-30 13:20:00,69.1,36.3,30.25,SSW,206,3.0,3.0,30,0.00,,,0.00,Wunderground v.1.15,2013-04-30 17:20:00,
2013-04-30 13:25:00,69.4,39.0,30.25,South,191,3.0,4.0,33,0.00,,,0.00,Wunderground v.1.15,2013-04-30 17:25:00,
2013-04-30 13:35:00,69.2,36.4,30.25,SW,233,4.0,7.0,30,0.00,,,0.00,Wunderground v.1.15,2013-04-30 17:35:00,
2013-04-30 13:40:00,69.6,38.4,30.25,SSW,212,2.0,3.0,32,0.00,,,0.00,Wunderground v.1.15,2013-04-30 17:40:00,
2013-04-30 13:45:00,69.6,35.9,30.24,NNW,333,2.0,3.0,29,0.00,,,0.00,Wunderground v.1.15,2013-04-30 17:45:00,
2013-04-30 13:55:00,69.9,37.0,30.24,SE,138,3.0,3.0,30,0.00,,,0.00,Wunderground v.1.15,2013-04-30 17:55:00,
2013-04-30 14:00:00,70.1,38.0,30.24,West,259,3.0,5.0,31,0.00,,,0.00,Wunderground v.1.15,2013-04-30 18:00:00,
2013-04-30 14:05:00,69.9,39.5,30.24,SSW,192,4.0,5.0,33,0.00,,,0.00,Wunderground v.1.15,2013-04-30 18:05:00,
2013-04-30 14:15:00,70.2,37.3,30.24,SSW,206,3.0,4.0,30,0.00,,,0.00,Wunderground v.1.15,2013-04-30 18:15:00,
2013-04-30 14:25:00,70.4,39.1,30.24,SSW,207,3.0,3.0,32,0.00,,,0.00,Wunderground v.1.15,2013-04-30 18:25:00,
2013-04-30 14:30:00,70.6,38.5,30.24,SSW,192,2.0,2.0,31,0.00,,,0.00,Wunderground v.1.15,2013-04-30 18:30:00,
2013-04-30 14:35:00,70.7,39.4,30.24,SSE,155,3.0,4.0,32,0.00,,,0.00,Wunderground v.1.15,2013-04-30 18:35:00,
2013-04-30 14:45:00,70.5,38.4,30.24,SSE,161,4.0,4.0,31,0.00,,,0.00,Wunderground v.1.15,2013-04-30 18:45:00,
2013-04-30 14:50:00,70.4,37.5,30.24,South,180,3.0,3.0,30,0.00,,,0.00,Wunderground v.1.15,2013-04-30 18:50:00,
2013-04-30 14:55:00,70.8,38.7,30.24,SSW,192,2.0,3.0,31,0.00,,,0.00,Wunderground v.1.15,2013-04-30 18:55:00,
2013-04-30 15:05:00,71.3,39.1,30.24,South,188,1.0,6.0,31,0.00,,,0.00,Wunderground v.1.15,2013-04-30 19:05:00,
2013-04-30 15:15:00,71.2,39.0,30.23,South,182,4.0,4.0,31,0.00,,,0.00,Wunderground v.1.15,2013-04-30 19:15:00,
2013-04-30 15:20:00,71.0,39.6,30.23,SSW,205,3.0,3.0,32,0.00,,,0.00,Wunderground v.1.15,2013-04-30 19:20:00,
2013-04-30 15:25:00,70.9,37.9,30.23,South,186,2.0,3.0,30,0.00,,,0.00,Wunderground v.1.15,2013-04-30 19:25:00,
2013-04-30 15:35:00,71.3,39.1,30.23,South,190,2.0,3.0,31,0.00,,,0.00,Wunderground v.1.15,2013-04-30 19:35:00,
2013-04-30 15:40:00,71.3,38.2,30.23,SE,141,2.0,2.0,30,0.00,,,0.00,Wunderground v.1.15,2013-04-30 19:40:00,
2013-04-30 15:50:00,71.3,38.2,30.23,SSE,147,2.0,4.0,30,0.00,,,0.00,Wunderground v.1.15,2013-04-30 19:50:00,
2013-04-30 15:55:00,71.2,39.0,30.23,SW,215,3.0,4.0,31,0.00,,,0.00,Wunderground v.1.15,2013-04-30 19:55:00,
2013-04-30 16:00:00,71.2,38.2,30.23,SSW,206,4.0,4.0,30,0.00,,,0.00,Wunderground v.1.15,2013-04-30 20:00:00,
2013-04-30 16:05:00,71.3,39.1,30.23,SW,222,3.0,4.0,31,0.00,,,0.00,Wunderground v.1.15,2013-04-30 20:05:00,
2013-04-30 16:15:00,71.3,39.1,30.23,South,188,4.0,4.0,31,0.00,,,0.00,Wunderground v.1.15,2013-04-30 20:15:00,
2013-04-30 16:20:00,71.3,36.5,30.23,South,188,3.0,3.0,28,0.00,,,0.00,Wunderground v.1.15,2013-04-30 20:20:00,
2013-04-30 16:30:00,71.2,38.2,30.23,SSE,149,2.0,4.0,30,0.00,,,0.00,Wunderground v.1.15,2013-04-30 20:30:00,
2013-04-30 16:35:00,71.2,39.0,30.23,South,169,3.0,4.0,31,0.00,,,0.00,Wunderground v.1.15,2013-04-30 20:35:00,
2013-04-30 16:40:00,71.1,37.2,30.23,SW,224,4.0,4.0,29,0.00,,,0.00,Wunderground v.1.15,2013-04-30 20:40:00,
2013-04-30 16:50:00,71.0,37.1,30.23,South,175,1.0,2.0,29,0.00,,,0.00,Wunderground v.1.15,2013-04-30 20:50:00,
2013-04-30 16:55:00,71.0,37.1,30.23,SSE,163,2.0,2.0,29,0.00,,,0.00,Wunderground v.1.15,2013-04-30 20:55:00,
2013-04-30 17:05:00,70.9,37.9,30.23,South,181,3.0,3.0,30,0.00,,,0.00,Wunderground v.1.15,2013-04-30 21:05:00,
2013-04-30 17:15:00,71.0,37.1,30.23,NE,52,1.0,2.0,29,0.00,,,0.00,Wunderground v.1.15,2013-04-30 21:15:00,
2013-04-30 17:20:00,71.2,37.3,30.23,SSE,156,1.0,3.0,29,0.00,,,0.00,Wunderground v.1.15,2013-04-30 21:20:00,
2013-04-30 17:25:00,71.0,38.0,30.23,SSE,148,2.0,5.0,30,0.00,,,0.00,Wunderground v.1.15,2013-04-30 21:25:00,
2013-04-30 17:35:00,70.5,38.4,30.23,SSW,213,3.0,3.0,31,0.00,,,0.00,Wunderground v.1.15,2013-04-30 21:35:00,
2013-04-30 17:40:00,70.3,37.4,30.23,SSW,204,3.0,3.0,30,0.00,,,0.00,Wunderground v.1.15,2013-04-30 21:40:00,
2013-04-30 17:50:00,70.4,36.6,30.23,SE,144,2.0,7.0,29,0.00,,,0.00,Wunderground v.1.15,2013-04-30 21:50:00,
2013-04-30 17:55:00,70.3,36.5,30.23,SSW,206,3.0,7.0,29,0.00,,,0.00,Wunderground v.1.15,2013-04-30 21:55:00,
2013-04-30 18:00:00,70.1,37.2,30.23,South,190,3.0,3.0,30,0.00,,,0.00,Wunderground v.1.15,2013-04-30 22:00:00,
2013-04-30 18:05:00,69.9,37.0,30.24,South,190,3.0,3.0,30,0.00,,,0.00,Wunderground v.1.15,2013-04-30 22:05:00,
2013-04-30 18:15:00,69.4,36.6,30.24,SSE,160,3.0,5.0,30,0.00,,,0.00,Wunderground v.1.15,2013-04-30 22:15:00,
2013-04-30 18:25:00,69.0,37.1,30.24,SSE,163,3.0,3.0,31,0.00,,,0.00,Wunderground v.1.15,2013-04-30 22:25:00,
2013-04-30 18:30:00,68.7,37.6,30.24,SSW,195,2.0,2.0,32,0.00,,,0.00,Wunderground v.1.15,2013-04-30 22:30:00,
2013-04-30 18:35:00,68.5,35.0,30.24,SSE,155,3.0,3.0,29,0.00,,,0.00,Wunderground v.1.15,2013-04-30 22:35:00,
2013-04-30 18:45:00,67.9,35.3,30.24,South,190,3.0,3.0,30,0.00,,,0.00,Wunderground v.1.15,2013-04-30 22:45:00,
2013-04-30 18:50:00,67.6,34.2,30.24,SSE,164,3.0,4.0,29,0.00,,,0.00,Wunderground v.1.15,2013-04-30 22:50:00,
2013-04-30 19:00:00,66.9,33.6,30.25,SSW,196,4.0,4.0,29,0.00,,,0.00,Wunderground v.1.15,2013-04-30 23:00:00,
2013-04-30 19:05:00,66.5,34.1,30.25,South,171,4.0,4.0,30,0.00,,,0.00,Wunderground v.1.15,2013-04-30 23:05:00,
2013-04-30 19:15:00,65.6,33.3,30.26,South,181,3.0,4.0,30,0.00,,,0.00,Wunderground v.1.15,2013-04-30 23:15:00,
2013-04-30 19:20:00,65.3,33.0,30.26,SSE,160,3.0,3.0,30,0.00,,,0.00,Wunderground v.1.15,2013-04-30 23:20:00,
2013-04-30 19:30:00,64.4,34.6,30.26,SSE,161,3.0,3.0,33,0.00,,,0.00,Wunderground v.1.15,2013-04-30 23:30:00,
2013-04-30 19:35:00,64.1,34.4,30.26,SSE,158,3.0,3.0,33,0.00,,,0.00,Wunderground v.1.15,2013-04-30 23:35:00,
2013-04-30 19:45:00,63.6,33.9,30.26,SE,132,3.0,6.0,33,0.00,,,0.00,Wunderground v.1.15,2013-04-30 23:45:00,
2013-04-30 19:50:00,63.3,34.4,30.27,SE,145,3.0,3.0,34,0.00,,,0.00,Wunderground v.1.15,2013-04-30 23:50:00,
2013-04-30 19:55:00,62.9,34.8,30.27,SSE,151,1.0,3.0,35,0.00,,,0.00,Wunderground v.1.15,2013-04-30 23:55:00,
2013-04-30 20:05:00,62.1,34.1,30.28,South,186,3.0,3.0,35,0.00,,,0.00,Wunderground v.1.15,2013-05-01 00:05:00,
2013-04-30 20:15:00,61.5,34.3,30.28,SSE,156,1.0,2.0,36,0.00,,,0.00,Wunderground v.1.15,2013-05-01 00:15:00,
2013-04-30 20:20:00,61.0,33.8,30.28,SSW,202,0.0,2.0,36,0.00,,,0.00,Wunderground v.1.15,2013-05-01 00:20:00,
2013-04-30 20:25:00,60.6,34.2,30.28,SSE,163,1.0,2.0,37,0.00,,,0.00,Wunderground v.1.15,2013-05-01 00:25:00,
2013-04-30 20:30:00,60.3,33.9,30.28,SSE,167,1.0,3.0,37,0.00,,,0.00,Wunderground v.1.15,2013-05-01 00:30:00,
2013-04-30 20:40:00,59.8,34.1,30.29,SSE,167,0.0,0.0,38,0.00,,,0.00,Wunderground v.1.15,2013-05-01 00:40:00,
2013-04-30 20:45:00,59.6,33.3,30.30,South,188,1.0,1.0,37,0.00,,,0.00,Wunderground v.1.15,2013-05-01 00:45:00,
2013-04-30 20:55:00,59.4,33.1,30.30,SE,125,1.0,3.0,37,0.00,,,0.00,Wunderground v.1.15,2013-05-01 00:55:00,
2013-04-30 21:00:00,59.2,32.9,30.30,SE,142,1.0,1.0,37,0.00,,,0.00,Wunderground v.1.15,2013-05-01 01:00:00,
2013-04-30 21:05:00,59.0,34.7,30.30,SE,142,0.0,1.0,40,0.00,,,0.00,Wunderground v.1.15,2013-05-01 01:05:00,
2013-04-30 21:15:00,58.4,34.2,30.30,SSW,204,0.0,0.0,40,0.00,,,0.00,Wunderground v.1.15,2013-05-01 01:15:00,
2013-04-30 21:20:00,57.5,36.3,30.30,SSW,205,0.0,0.0,45,0.00,,,0.00,Wunderground v.1.15,2013-05-01 01:20:00,
2013-04-30 21:30:00,55.9,34.8,30.31,SSW,204,0.0,0.0,45,0.00,,,0.00,Wunderground v.1.15,2013-05-01 01:30:00,
2013-04-30 21:35:00,55.1,35.7,30.31,SSW,203,0.0,0.0,48,0.00,,,0.00,Wunderground v.1.15,2013-05-01 01:35:00,
2013-04-30 21:45:00,53.7,37.0,30.31,SSW,204,0.0,0.0,53,0.00,,,0.00,Wunderground v.1.15,2013-05-01 01:45:00,
2013-04-30 21:50:00,53.1,36.9,30.32,SSW,204,0.0,0.0,54,0.00,,,0.00,Wunderground v.1.15,2013-05-01 01:50:00,
2013-04-30 21:55:00,52.5,36.3,30.32,SSW,204,0.0,0.0,54,0.00,,,0.00,Wunderground v.1.15,2013-05-01 01:55:00,
2013-04-30 22:05:00,52.0,37.7,30.32,SSW,203,0.0,0.0,58,0.00,,,0.00,Wunderground v.1.15,2013-05-01 02:05:00,
2013-04-30 22:15:00,51.2,36.0,30.32,SSW,203,0.0,0.0,56,0.00,,,0.00,Wunderground v.1.15,2013-05-01 02:15:00,
2013-04-30 22:20:00,50.8,36.1,30.33,SSW,203,0.0,0.0,57,0.00,,,0.00,Wunderground v.1.15,2013-05-01 02:20:00,
2013-04-30 22:25:00,50.4,36.2,30.33,SSW,204,0.0,0.0,58,0.00,,,0.00,Wunderground v.1.15,2013-05-01 02:25:00,
2013-04-30 22:35:00,49.9,38.2,30.33,SSW,204,0.0,0.0,64,0.00,,,0.00,Wunderground v.1.15,2013-05-01 02:35:00,
2013-04-30 22:40:00,49.6,37.1,30.33,SSW,204,0.0,0.0,62,0.00,,,0.00,Wunderground v.1.15,2013-05-01 02:40:00,
2013-04-30 22:50:00,48.9,36.4,30.33,SSW,204,0.0,0.0,62,0.00,,,0.00,Wunderground v.1.15,2013-05-01 02:50:00,
2013-04-30 22:55:00,48.7,35.8,30.33,SSW,204,0.0,0.0,61,0.00,,,0.00,Wunderground v.1.15,2013-05-01 02:55:00,
2013-04-30 23:00:00,48.5,36.5,30.33,SSW,204,0.0,0.0,63,0.00,,,0.00,Wunderground v.1.15,2013-05-01 03:00:00,
2013-04-30 23:05:00,48.3,35.9,30.34,SSW,203,0.0,0.0,62,0.00,,,0.00,Wunderground v.1.15,2013-05-01 03:05:00,
2013-04-30 23:15:00,48.0,35.6,30.33,SSW,203,0.0,0.0,62,0.00,,,0.00,Wunderground v.1.15,2013-05-01 03:15:00,
2013-04-30 23:25:00,47.3,36.5,30.33,SSW,204,0.0,0.0,66,0.00,,,0.00,Wunderground v.1.15,2013-05-01 03:25:00,
2013-04-30 23:35:00,46.6,37.7,30.33,SSW,204,0.0,0.0,71,0.00,,,0.00,Wunderground v.1.15,2013-05-01 03:35:00,
2013-04-30 23:40:00,46.4,37.1,30.33,SSW,204,0.0,0.0,70,0.00,,,0.00,Wunderground v.1.15,2013-05-01 03:40:00,
2013-04-30 23:45:00,46.1,36.9,30.33,SSW,203,0.0,0.0,70,0.00,,,0.00,Wunderground v.1.15,2013-05-01 03:45:00,
2013-04-30 23:50:00,45.9,37.0,30.34,SSW,204,0.0,0.0,71,0.00,,,0.00,Wunderground v.1.15,2013-05-01 03:50:00,
2013-04-30 23:55:00,45.5,36.3,30.34,SSW,203,0.0,0.0,70,0.00,,,0.00,Wunderground v.1.15,2013-05-01 03:55:00,